+ View the NASA Portal
+ Center for Near-Earth Object Studies
IMPORTANT:
The SSD Announcement email list is now available. Major changes are coming in the near future, including possible hostname and/or URL changes. To be notified of such changes, subscribe to this email list.
Please visit
this page
for more details.
Don't show this message again
JPL Small-Body Database Browser
Search:
[
help
]
233583 (2007 RR)
Classification:
Main-belt Asteroid
SPK-ID:
2233583
[
Ephemeris
|
Orbit Diagram
|
Orbital Elements
|
Mission Design
|
Physical Parameters
|
Discovery Circumstances
]
[ show orbit diagram ]
Orbital Elements at Epoch 2458600.5 (2019-Apr-27.0) TDB
Reference:
JPL 8
(heliocentric ecliptic J2000)
Element
Value
Uncertainty (1-sigma)
Units
e
.1180905793459947
7.1215e-08
a
2.442302080660753
2.3366e-08
au
q
2.153889213017597
1.7741e-07
au
i
3.72868859029579
6.5445e-06
deg
node
103.068538917365
0.00012821
deg
peri
77.5697100372883
0.00013322
deg
M
158.4885878914606
4.083e-05
deg
t
p
2457986.747899860163
(2017-Aug-21.24789986)
0.00015284
TDB
period
1394.111456161483
3.82
2.0006e-05
5.477e-08
d
yr
n
.2582289948260065
3.7057e-09
deg/d
Q
2.73071494830391
2.6125e-08
au
Orbit Determination Parameters
# obs. used (total)
133
data-arc span
6471 days (17.72 yr)
first obs. used
2002-02-08
last obs. used
2019-10-28
planetary ephem.
DE431
SB-pert. ephem.
SB431-N16
condition code
0
norm. resid. RMS
.66032
source
ORB
producer
Otto Matic
solution date
2019-Nov-08 01:36:14
Additional Information
Earth MOID
= 1.1611 au
Jupiter MOID
= 2.23377 au
T_jup
= 3.488
[ show covariance matrix ]
[
Ephemeris
|
Orbit Diagram
|
Orbital Elements
|
Mission Design
|
Physical Parameters
|
Discovery Circumstances
]
Physical Parameter Table
Parameter
Symbol
Value
Units
Sigma
Reference
Notes
absolute magnitude
H
17.3
n/a
MPO300115
233583 (2007 RR)
Discovered 2007-Sep-01 by Sarneczky, K., Kiss, L. at Siding Spring
Reference:
20100228/Numbers.arc
Last Updated:
2010-03-03
Alternate Designations
2007 RR
= 2002 CB209 = 2008 VB78
[
Ephemeris
|
Orbit Diagram
|
Orbital Elements
|
Mission Design
|
Physical Parameters
|
Discovery Circumstances
]
2019-Dec-16 11:28 UT
(server date/time)
Site Manager:
Ryan S. Park
Webmaster
:
Alan B. Chamberlin